FW0074 Weather Reports


time (UTC)temp
C
wind
direction
speed
KPH
gust
KPH
rain 1hr
cm
rain 24hr
cm
rain mn
cm
humidity
%
barometer
mb
20260505093517 0 23 11.3 16.1 0.00 0.20 0.13 94 1011.7
20260505092517 0 23 11.3 14.5 0.00 0.20 0.13 94 1011.7
20260505091517 0 23 14.5 17.7 0.00 0.20 0.13 94 1011.9
20260505090517 0 23 12.9 17.7 0.00 0.20 0.13 94 1012.3
20260505085517 0 0 12.9 17.7 0.00 0.20 0.13 94 1012.4
20260505084517 0 23 12.9 17.7 0.00 0.20 0.13 94 1011.4
20260505083517 0 0 12.9 17.7 0.00 0.20 0.13 94 1011.5
20260505082517 0 23 11.3 16.1 0.03 0.20 0.13 94 1011.5
20260505081517 0 23 11.3 16.1 0.03 0.20 0.13 93 1011.3
20260505080517 0 23 12.9 19.3 0.03 0.20 0.13 93 1011.2
20260505075517 0 23 11.3 17.7 0.03 0.20 0.13 93 1011.3
20260505074517 0 23 16.1 19.3 0.05 0.20 0.13 93 1011.6
20260505073517 0 23 14.5 19.3 0.05 0.20 0.13 92 1011.6
20260505072517 1 23 14.5 19.3 0.03 0.18 0.10 91 1011.6
20260505071517 1 23 16.1 25.7 0.05 0.18 0.10 91 1012.5
20260505070517 1 23 19.3 25.7 0.10 0.18 0.10 91 1012.4
20260505065517 2 23 19.3 25.7 0.13 0.18 0.10 90 1012.4
20260505064517 2 45 16.1 24.1 0.10 0.15 0.08 90 1012.5
20260505063517 2 23 16.1 22.5 0.13 0.15 0.08 90 1012.5
20260505062516 1 23 16.1 22.5 0.13 0.15 0.08 90 1012.7
20260505061517 1 23 19.3 24.1 0.13 0.13 0.05 88 1013.1
20260505060517 2 0 22.5 30.6 0.08 0.08 0.00 87 1013.6
20260505055536 3 0 24.1 32.2 0.05 0.05 0.05 82 1013.8
20260505054516 4 0 12.9 19.3 0.05 0.05 0.05 83 1014.6
20260505053517 5 23 14.5 25.7 0.03 0.03 0.03 81 1014.3
20260505052516 5 0 12.9 19.3 0.03 0.03 0.03 80 1014.4
20260505051516 5 23 14.5 20.9 0.00 0.00 0.00 76 1014.3
20260505050516 6 0 19.3 24.1 0.00 0.00 0.00 72 1014.1
20260505041536 7 45 16.1 24.1 0.00 0.00 0.00 68 1013.5
20260505040516 7 45 14.5 20.9 0.00 0.00 0.00 69 1013.5
20260505035516 7 45 14.5 20.9 0.00 0.00 0.00 70 1013.1
20260505034516 7 45 14.5 17.7 0.00 0.00 0.00 71 1013.1
20260505033516 8 45 14.5 20.9 0.00 0.00 0.00 76 1012.9
20260505032516 8 68 11.3 16.1 0.00 0.00 0.00 77 1013.1
20260505031516 8 68 11.3 16.1 0.00 0.00 0.00 76 1012.8
20260505030516 8 68 8.0 14.5 0.00 0.00 0.00 78 1012.6
20260505025516 8 68 9.7 14.5 0.00 0.00 0.00 79 1012.3
20260505024516 8 68 8.0 14.5 0.00 0.00 0.00 80 1011.3
20260505023516 8 68 8.0 16.1 0.00 0.00 0.00 80 1011.3
20260505022516 8 68 11.3 17.7 0.00 0.00 0.00 79 1011.3
20260505021516 8 68 11.3 17.7 0.00 0.00 0.00 79 1010.5
20260505020516 8 68 11.3 17.7 0.00 0.00 0.00 78 1010.8
20260505015516 8 68 6.4 9.7 0.00 0.00 0.00 78 1010.9
20260505014516 9 68 6.4 9.7 0.00 0.00 0.00 75 1010.3
20260505013536 10 68 9.7 14.5 0.00 0.00 0.00 72 1010.3
20260505012516 10 68 8.0 14.5 0.00 0.00 0.00 73 1010.2
20260505011516 10 45 8.0 14.5 0.00 0.00 0.00 75 1008.6
20260505010536 10 45 4.8 6.4 0.00 0.00 0.00 77 1008.8
20260505005516 10 338 4.8 8.0 0.00 0.00 0.00 75 1008.8
20260505004516 10 315 8.0 9.7 0.00 0.00 0.00 73 1008.2
20260505003516 10 315 8.0 12.9 0.00 0.00 0.00 73 1008.4
20260505002516 10 315 11.3 16.1 0.00 0.00 0.00 72 1008.4
20260505001516 10 315 17.7 30.6 0.00 0.00 0.00 67 1007.9
20260505000516 12 315 24.1 32.2 0.00 0.00 0.00 55 1007.9
20260504235516 13 23 14.5 24.1 0.00 0.00 0.00 44 1008.3
20260504234516 14 23 4.8 8.0 0.00 0.00 0.00 40 1008.5
20260504233516 14 23 8.0 14.5 0.00 0.00 0.00 39 1008.3
20260504232516 14 0 6.4 12.9 0.00 0.00 0.00 40 1008.2
20260504231516 14 0 8.0 14.5 0.00 0.00 0.00 40 1007.6
20260504230516 15 23 12.9 19.3 0.00 0.00 0.00 40 1007.5
20260504225516 15 23 12.9 19.3 0.00 0.00 0.00 39 1007.5
20260504224516 15 0 6.4 12.9 0.00 0.00 0.00 39 1006.8
20260504223516 15 23 9.7 16.1 0.00 0.00 0.00 39 1006.9
20260504222536 15 0 8.0 16.1 0.00 0.00 0.00 39 1007.6
20260504221516 15 23 8.0 16.1 0.00 0.00 0.00 39 1007.6
20260504220536 15 338 12.9 19.3 0.00 0.00 0.00 39 1007.8
20260504215516 15 315 14.5 20.9 0.00 0.00 0.00 38 1007.7
20260504214516 15 315 14.5 24.1 0.00 0.00 0.00 38 1007.9
20260504213516 16 23 11.3 19.3 0.00 0.00 0.00 38 1008.3
20260504212516 16 338 16.1 25.7 0.00 0.00 0.00 37 1008.4
20260504211516 16 0 16.1 24.1 0.00 0.00 0.00 38 1008.1
20260504210516 16 0 19.3 30.6 0.00 0.00 0.00 38 1008.0
20260504205516 16 23 16.1 29.0 0.00 0.00 0.00 36 1008.1
20260504204516 17 0 17.7 27.4 0.00 0.00 0.00 35 1007.9
20260504203516 16 23 12.9 25.7 0.00 0.00 0.00 37 1008.0
20260504201518 16 0 17.7 24.1 0.00 0.00 0.00 38 1008.2
20260504200518 16 0 14.5 19.3 0.00 0.00 0.00 37 1008.6
20260504195538 15 338 19.3 22.5 0.00 0.00 0.00 37 1008.1
20260504194518 15 0 17.7 27.4 0.00 0.00 0.00 38 1008.1
20260504193518 16 0 24.1 37.0 0.00 0.00 0.00 37 1008.4
20260504192518 16 0 24.1 37.0 0.00 0.00 0.00 36 1008.2
20260504191518 16 0 29.0 35.4 0.00 0.00 0.00 35 1008.3
20260504190518 16 0 29.0 40.2 0.00 0.00 0.00 34 1008.2
20260504185518 17 0 32.2 46.7 0.00 0.00 0.00 32 1008.6
20260504184517 17 23 30.6 37.0 0.00 0.00 0.00 33 1008.6
20260504183537 17 0 33.8 43.5 0.00 0.00 0.00 32 1008.3
20260504182518 17 0 35.4 46.7 0.00 0.00 0.00 33 1008.6
20260504181516 18 23 33.8 48.3 0.00 0.00 0.00 29 1008.7
20260504180517 18 0 38.6 48.3 0.00 0.00 0.00 28 1008.7
20260504175517 18 23 35.4 51.5 0.00 0.00 0.00 28 1008.4
20260504174517 18 0 32.2 45.1 0.00 0.00 0.00 26 1009.0
20260504173517 18 0 20.9 40.2 0.00 0.00 0.00 22 1008.8
20260504172520 19 338 16.1 29.0 0.00 0.00 0.00 22 1009.4
20260504171518 20 293 22.5 29.0 0.00 0.00 0.00 21 1010.3
20260504170518 19 315 22.5 33.8 0.00 0.00 0.00 22 1009.9
20260504150518 17 315 20.9 29.0 0.00 0.00 0.00 25 1011.1
20260504140517 12 315 16.1 19.3 0.00 0.00 0.00 33 1011.3
20260504130517 8 270 12.9 16.1 0.00 0.00 0.00 50 1011.3
20260504110517 4 203 8.0 11.3 0.00 0.00 0.00 63 1009.9
20260504100517 2 225 4.8 6.4 0.00 0.00 0.00 64 1009.5